This demonstration page uses our WeatherBlox Daily Observations layout. Learn more.

Left ArrowRight Arrow

41.55636, -103.73856

Hourly Observations for February 22, 2018

Temp ( °F °C ) Dew Point ( °F °C ) Humidity (%) Winds ( mph kmh ) Pressure ( in mb ) Visibility ( mi km ) Precip ( " mm )
12:53 am 00:53 Mostly Cloudy 9 -12.8 5 -15 84 84 E 13 20 30.33 1027 10 16 N/A
1:53 am 01:53 Cloudy 9 -12.8 4 -15.6 80 80 ESE 10 17 30.30 1026 10 16 N/A
2:53 am 02:53 Clear 7 -13.9 3 -16.1 84 84 ESE 10 17 30.29 1026 10 16 N/A
3:53 am 03:53 Clear 5 -15 2 -16.7 87 87 ESE 5 7 30.27 1025 10 16 N/A
4:53 am 04:53 Partly Cloudy 5 -15 1 -17.2 83 83 SE 5 7 30.29 1026 10 16 N/A
5:22 am 05:22 Cloudy 5 -15 3 -16 92 92 N N/A 30.50 1033 10 16 N/A
5:44 am 05:44 Cloudy 7 -14 3 -16 85 85 ENE 6 9 30.45 1031 10 16 N/A
5:53 am 05:53 Cloudy 8 -13.3 5 -15 87 87 E 7 11 30.30 1026 10 16 N/A
6:53 am 06:53 Cloudy 13 -10.6 10 -12.2 88 88 E 8 13 30.26 1025 10 16 N/A
7:05 am 07:05 Cloudy 14 -10 11 -11.7 88 88 ESE 8 13 30.39 1029 10 16 N/A
7:33 am 07:33 Cloudy 16 -9 12 -11 86 86 SE 6 9 30.36 1028 10 16 N/A
7:53 am 07:53 Cloudy 14 -10 11 -11.7 88 88 SE 6 9 30.27 1025 10 16 N/A
8:53 am 08:53 Cloudy 16 -8.9 12 -11.1 84 84 SE 3 6 30.27 1025 10 16 N/A
9:51 am 09:51 Cloudy with Light Snow 19 -7 16 -9 86 86 ESE 7 11 30.33 1027 2 3 N/A
9:53 am 09:53 Cloudy with Light Snow 19 -7.2 15 -9.4 84 84 ESE 7 11 30.25 1024 1 2 N/A
10:33 am 10:33 Cloudy with Light Snow 20 -6.7 16 -8.9 85 85 E 8 13 30.30 1026 1 2 N/A
10:53 am 10:53 Cloudy with Light Snow 20 -6.7 17 -8.3 89 89 ESE 9 15 30.23 1024 1 2 0.01 0.25
11:40 am 11:40 Cloudy with Light Snow 21 -6 18 -8 86 86 ESE 8 13 30.24 1024 3 4 N/A
11:49 am 11:49 Cloudy with Light Snow 21 -6 18 -8 86 86 ESE 9 15 30.24 1024 4 6 0.01 0.25
11:53 am 11:53 Cloudy with Mist and Fog 22 -5.6 19 -7.2 89 89 SE 8 13 30.19 1022 4 6 0.01 0.25
12:08 pm 12:08 Mostly Cloudy 23 -5 19 -7 86 86 ESE 7 11 30.24 1024 9 14 N/A
12:53 pm 12:53 Cloudy with Light Snow 23 -5 19 -7.2 85 85 E 6 9 30.16 1022 3 4 N/A
12:59 pm 12:59 Cloudy with Light Snow 23 -5 19 -7.2 85 85 SE 5 7 30.18 1022 3 5 N/A
1:32 pm 13:32 Mostly Cloudy 25 -4 19 -7 80 80 N N/A 30.18 1022 8 13 N/A
1:48 pm 13:48 Mostly Cloudy 25 -4 19 -7 80 80 ENE 3 6 30.18 1022 10 16 N/A
1:53 pm 13:53 Mostly Cloudy 25 -3.9 19 -7.2 78 78 ENE 3 6 30.15 1021 10 16 N/A
2:53 pm 14:53 Cloudy 25 -3.9 19 -7.2 78 78 N N/A 30.16 1021 10 16 N/A
3:36 pm 15:36 Mostly Cloudy 25 -3.9 18 -7.8 75 75 WNW 3 6 30.18 1022 10 16 N/A
3:53 pm 15:53 Mostly Cloudy 25 -3.9 18 -7.8 75 75 WNW 3 6 30.17 1022 10 16 N/A
4:53 pm 16:53 Sunny 24 -4.4 18 -7.8 77 77 S 5 7 30.17 1022 10 16 N/A
5:53 pm 17:53 Clear 20 -6.7 16 -8.9 85 85 SSE 6 9 30.20 1023 10 16 N/A
6:53 pm 18:53 Clear 12 -11.1 10 -12.2 92 92 E 6 9 30.22 1023 10 16 N/A
7:53 pm 19:53 Mostly Clear 14 -10 11 -11.7 88 88 NE 6 9 30.22 1024 10 16 N/A
8:53 pm 20:53 Clear 11 -11.7 8 -13.3 88 88 NNE 8 13 30.24 1024 10 16 N/A
9:53 pm 21:53 Clear 9 -12.8 6 -14.4 88 88 NNE 7 11 30.24 1024 10 16 N/A
10:53 pm 22:53 Clear 5 -15 3 -16.1 91 91 NNW 7 11 30.26 1025 9 14 N/A
11:53 pm 23:53 Clear 4 -15.6 1 -17.2 88 88 N 5 7 30.27 1025 9 14 N/A

Powered by AerisWeather